Retour au catalogue

OV1-5 DEB

ActifLEO
NORAD 5361·DEBRIS·🇺🇸 United States

Lancé Mar 30, 1966 depuis Vandenberg Space Force Base

Loading…

Prochains Passages (prochaines 24 heures)

TLE

FraisSource: Space-Track

Époque: Sep 14, 2026, 04:51 UTC

1 05361U 66025F   26257.20241882  .00005915  00000-0  11999-2 0  9994
2 05361 144.6110 106.2234 0019960 200.3674 159.6229 14.57437818381823

Suivez OV1-5 DEB en temps réel avec AllMySat

Download on the App Store